| time (UTC) | temp C | wind direction | speed KPH | gust KPH | rain 1hr cm | rain 24hr cm | rain mn cm | humidity % | barometer mb |
| 20260502140107 | 10 | 303 | 4.8 | 8.0 | 0.00 | 0.30 | 0.30 | 87 | 1012.8 |
| 20260502130532 | 10 | 259 | 1.6 | 6.4 | 0.00 | 0.30 | 0.30 | 92 | 1013.0 |
| 20260502123515 | 8 | 189 | 0.0 | 4.8 | 0.00 | 0.30 | 0.30 | 99 | 1013.4 |
| 20260502123011 | 8 | 304 | 3.2 | 6.4 | 0.00 | 0.30 | 0.30 | 99 | 1013.5 |
| 20260502122508 | 8 | 336 | 4.8 | 8.0 | 0.00 | 0.30 | 0.30 | 99 | 1013.2 |
| 20260502122006 | 8 | 247 | 1.6 | 3.2 | 0.00 | 0.30 | 0.30 | 99 | 1013.3 |
| 20260502121503 | 8 | 162 | 1.6 | 4.8 | 0.00 | 0.30 | 0.30 | 99 | 1013.4 |
| 20260502121000 | 8 | 263 | 3.2 | 8.0 | 0.00 | 0.30 | 0.30 | 99 | 1013.6 |
| 20260502120456 | 8 | 248 | 4.8 | 4.8 | 0.00 | 0.30 | 0.30 | 99 | 1013.5 |
| 20260502115451 | 8 | 215 | 3.2 | 3.2 | 0.00 | 0.30 | 0.30 | 99 | 1013.3 |
| 20260502114947 | 8 | 229 | 0.0 | 4.8 | 0.00 | 0.30 | 0.30 | 99 | 1013.4 |
| 20260502114444 | 8 | 24 | 1.6 | 3.2 | 0.00 | 0.30 | 0.30 | 99 | 1013.3 |
| 20260502113941 | 8 | 132 | 0.0 | 4.8 | 0.00 | 0.30 | 0.30 | 99 | 1013.1 |
| 20260502113438 | 8 | 227 | 0.0 | 3.2 | 0.00 | 0.30 | 0.30 | 99 | 1013.2 |
| 20260502112937 | 8 | 144 | 0.0 | 3.2 | 0.00 | 0.30 | 0.30 | 99 | 1013.2 |
| 20260502112434 | 8 | 148 | 3.2 | 3.2 | 0.00 | 0.30 | 0.30 | 99 | 1013.3 |
| 20260502111931 | 8 | 158 | 0.0 | 3.2 | 0.00 | 0.30 | 0.30 | 99 | 1013.3 |
| 20260502111428 | 8 | 173 | 1.6 | 3.2 | 0.00 | 0.30 | 0.30 | 99 | 1013.4 |
| 20260502110926 | 8 | 186 | 3.2 | 4.8 | 0.00 | 0.30 | 0.30 | 99 | 1013.3 |
| 20260502110424 | 8 | 277 | 0.0 | 3.2 | 0.00 | 0.30 | 0.30 | 99 | 1013.7 |
| 20260502105920 | 8 | 232 | 1.6 | 4.8 | 0.18 | 0.30 | 0.30 | 99 | 1013.5 |
| 20260502105417 | 8 | 148 | 3.2 | 3.2 | 0.43 | 0.30 | 0.30 | 99 | 1013.5 |
| 20260502104916 | 8 | 111 | 0.0 | 3.2 | 0.43 | 0.28 | 0.28 | 99 | 1013.6 |
| 20260502104413 | 8 | 170 | 3.2 | 4.8 | 0.43 | 0.23 | 0.23 | 99 | 1013.6 |
| 20260502103910 | 8 | 274 | 0.0 | 3.2 | 0.48 | 0.20 | 0.20 | 99 | 1013.8 |
| 20260502103408 | 8 | 186 | 0.0 | 3.2 | 0.23 | 0.15 | 0.15 | 99 | 1013.4 |
| 20260502102904 | 8 | 98 | 0.0 | 3.2 | 0.05 | 0.13 | 0.13 | 99 | 1013.3 |
| 20260502102401 | 8 | 3 | 1.6 | 4.8 | 0.05 | 0.13 | 0.13 | 99 | 1013.4 |
| 20260502101858 | 8 | 280 | 1.6 | 3.2 | 0.00 | 0.10 | 0.10 | 99 | 1012.9 |
| 20260502101356 | 7 | 270 | 0.0 | 3.2 | 0.00 | 0.10 | 0.10 | 99 | 1012.7 |
| 20260502100854 | 8 | 113 | 0.0 | 3.2 | 0.00 | 0.10 | 0.10 | 99 | 1013.0 |
| 20260502100353 | 8 | 189 | 0.0 | 4.8 | 0.00 | 0.10 | 0.10 | 99 | 1013.0 |
| 20260502091327 | 8 | 348 | 0.0 | 3.2 | 0.00 | 0.05 | 0.05 | 99 | 1012.7 |
| 20260502090825 | 8 | 119 | 0.0 | 1.6 | 0.05 | 0.05 | 0.05 | 99 | 1012.7 |
| 20260502090321 | 8 | 231 | 1.6 | 4.8 | 0.05 | 0.05 | 0.05 | 99 | 1012.9 |
| 20260502071216 | 8 | 248 | 3.2 | 4.8 | 0.00 | 0.00 | 0.00 | 92 | 1012.5 |
| 20260502070715 | 8 | 238 | 3.2 | 4.8 | 0.00 | 0.00 | 0.00 | 91 | 1012.4 |
| 20260502070212 | 9 | 258 | 3.2 | 4.8 | 0.00 | 0.00 | 0.00 | 91 | 1012.4 |
| 20260502065710 | 9 | 148 | 0.0 | 3.2 | 0.00 | 0.00 | 0.00 | 90 | 1012.5 |
| 20260502065208 | 9 | 138 | 0.0 | 3.2 | 0.00 | 0.00 | 0.00 | 90 | 1012.7 |
| 20260502064706 | 9 | 137 | 0.0 | 3.2 | 0.00 | 0.00 | 0.00 | 90 | 1012.6 |
| 20260502064203 | 9 | 155 | 0.0 | 1.6 | 0.00 | 0.00 | 0.00 | 89 | 1012.7 |
| 20260502063701 | 9 | 312 | 0.0 | 3.2 | 0.00 | 0.00 | 0.00 | 89 | 1012.9 |
| 20260502063159 | 9 | 261 | 3.2 | 4.8 | 0.00 | 0.00 | 0.00 | 89 | 1012.6 |
| 20260502062655 | 9 | 149 | 1.6 | 4.8 | 0.00 | 0.00 | 0.00 | 89 | 1012.6 |
| 20260502062153 | 9 | 125 | 3.2 | 3.2 | 0.00 | 0.00 | 0.00 | 90 | 1012.7 |
| 20260502061651 | 9 | 109 | 0.0 | 1.6 | 0.00 | 0.00 | 0.00 | 90 | 1013.0 |
| 20260502061148 | 9 | 217 | 0.0 | 3.2 | 0.00 | 0.00 | 0.00 | 90 | 1012.9 |
| 20260502060649 | 9 | 268 | 0.0 | 1.6 | 0.00 | 0.00 | 0.00 | 90 | 1012.8 |
| 20260502060146 | 9 | 137 | 0.0 | 3.2 | 0.00 | 0.00 | 0.00 | 89 | 1012.6 |
| 20260502055643 | 9 | 173 | 0.0 | 3.2 | 0.00 | 0.00 | 0.00 | 89 | 1012.8 |
| 20260502055141 | 9 | 155 | 0.0 | 1.6 | 0.00 | 0.00 | 0.00 | 89 | 1012.9 |
| 20260502054640 | 9 | 137 | 0.0 | 1.6 | 0.00 | 0.00 | 0.00 | 89 | 1012.7 |
| 20260502054137 | 9 | 189 | 0.0 | 1.6 | 0.00 | 0.00 | 0.00 | 88 | 1012.6 |
| 20260502053634 | 9 | 317 | 0.0 | 1.6 | 0.00 | 0.00 | 0.00 | 88 | 1012.8 |
| 20260502053131 | 9 | 242 | 0.0 | 1.6 | 0.00 | 0.00 | 0.00 | 87 | 1012.5 |
| 20260502052629 | 9 | 204 | 0.0 | 1.6 | 0.00 | 0.00 | 0.00 | 87 | 1012.7 |
| 20260502052127 | 10 | 181 | 3.2 | 3.2 | 0.00 | 0.00 | 0.00 | 87 | 1012.8 |
| 20260502051625 | 10 | 203 | 3.2 | 4.8 | 0.00 | 0.00 | 0.00 | 87 | 1012.8 |
| 20260502051123 | 10 | 229 | 1.6 | 3.2 | 0.00 | 0.00 | 0.00 | 86 | 1012.9 |
| 20260502050619 | 10 | 132 | 0.0 | 3.2 | 0.00 | 0.00 | 0.00 | 85 | 1012.7 |
| 20260502050116 | 10 | 125 | 1.6 | 3.2 | 0.00 | 0.00 | 0.00 | 85 | 1013.0 |
| 20260502045612 | 10 | 136 | 0.0 | 3.2 | 0.00 | 0.00 | 0.00 | 85 | 1013.0 |
| 20260502045110 | 10 | 131 | 1.6 | 3.2 | 0.00 | 0.00 | 0.00 | 84 | 1013.1 |
| 20260502044606 | 10 | 142 | 1.6 | 3.2 | 0.00 | 0.00 | 0.00 | 84 | 1013.0 |
| 20260502044103 | 10 | 144 | 1.6 | 1.6 | 0.00 | 0.00 | 0.00 | 83 | 1013.0 |
| 20260502043600 | 10 | 149 | 0.0 | 1.6 | 0.00 | 0.00 | 0.00 | 82 | 1013.0 |
| 20260502043056 | 10 | 131 | 1.6 | 3.2 | 0.00 | 0.00 | 0.00 | 81 | 1012.9 |
| 20260502042551 | 9 | 242 | 0.0 | 0.0 | 0.00 | 0.00 | 0.00 | 81 | 1012.9 |
| 20260502042049 | 9 | 144 | 0.0 | 3.2 | 0.00 | 0.00 | 0.00 | 81 | 1013.0 |
| 20260502041547 | 9 | 150 | 0.0 | 3.2 | 0.00 | 0.00 | 0.00 | 81 | 1013.0 |
| 20260502041043 | 9 | 184 | 0.0 | 3.2 | 0.00 | 0.00 | 0.00 | 81 | 1013.0 |
| 20260502040540 | 9 | 106 | 0.0 | 3.2 | 0.00 | 0.00 | 0.00 | 80 | 1012.7 |
| 20260502040037 | 10 | 240 | 1.6 | 4.8 | 0.00 | 0.00 | 0.00 | 80 | 1012.8 |
| 20260502035533 | 10 | 175 | 0.0 | 0.0 | 0.00 | 0.08 | 0.08 | 80 | 1012.9 |
| 20260502035031 | 10 | 199 | 0.0 | 3.2 | 0.00 | 0.08 | 0.08 | 80 | 1012.9 |
| 20260502034528 | 10 | 172 | 0.0 | 3.2 | 0.00 | 0.08 | 0.08 | 79 | 1012.9 |
| 20260502034027 | 10 | 148 | 0.0 | 1.6 | 0.00 | 0.08 | 0.08 | 79 | 1012.8 |
| 20260502033525 | 10 | 142 | 0.0 | 3.2 | 0.00 | 0.08 | 0.08 | 79 | 1012.9 |
| 20260502033022 | 10 | 168 | 0.0 | 3.2 | 0.00 | 0.08 | 0.08 | 79 | 1012.8 |
| 20260502032517 | 10 | 152 | 1.6 | 3.2 | 0.00 | 0.08 | 0.08 | 79 | 1012.8 |
| 20260502032014 | 10 | 133 | 0.0 | 3.2 | 0.00 | 0.08 | 0.08 | 78 | 1013.0 |
| 20260502031512 | 10 | 137 | 0.0 | 3.2 | 0.00 | 0.08 | 0.08 | 78 | 1013.0 |
| 20260502031010 | 10 | 150 | 0.0 | 3.2 | 0.00 | 0.08 | 0.08 | 78 | 1013.0 |
| 20260502030508 | 10 | 148 | 3.2 | 4.8 | 0.00 | 0.08 | 0.08 | 78 | 1013.1 |
| 20260502030006 | 10 | 101 | 1.6 | 3.2 | 0.00 | 0.08 | 0.08 | 77 | 1013.2 |
| 20260502025503 | 10 | 151 | 1.6 | 3.2 | 0.00 | 0.08 | 0.08 | 77 | 1013.0 |
| 20260502025001 | 10 | 147 | 0.0 | 3.2 | 0.00 | 0.08 | 0.08 | 76 | 1013.1 |
| 20260502024458 | 10 | 147 | 1.6 | 3.2 | 0.00 | 0.08 | 0.08 | 77 | 1013.1 |
| 20260502023956 | 10 | 175 | 1.6 | 3.2 | 0.00 | 0.08 | 0.08 | 76 | 1013.0 |
| 20260502023454 | 10 | 204 | 1.6 | 3.2 | 0.00 | 0.08 | 0.08 | 75 | 1012.8 |
| 20260502022951 | 10 | 160 | 0.0 | 3.2 | 0.00 | 0.08 | 0.08 | 74 | 1012.9 |
| 20260502022447 | 10 | 139 | 0.0 | 3.2 | 0.00 | 0.08 | 0.08 | 73 | 1012.9 |
| 20260502021944 | 10 | 153 | 1.6 | 3.2 | 0.00 | 0.08 | 0.08 | 73 | 1012.9 |
| 20260502021442 | 10 | 131 | 0.0 | 3.2 | 0.00 | 0.08 | 0.08 | 72 | 1012.8 |
| 20260502020939 | 11 | 179 | 3.2 | 3.2 | 0.00 | 0.08 | 0.08 | 72 | 1013.0 |
| 20260502020437 | 11 | 189 | 0.0 | 3.2 | 0.00 | 0.08 | 0.08 | 71 | 1013.1 |
| 20260502015933 | 11 | 164 | 1.6 | 4.8 | 0.00 | 0.08 | 0.08 | 71 | 1013.0 |
| 20260502015431 | 11 | 135 | 1.6 | 1.6 | 0.00 | 0.08 | 0.08 | 71 | 1013.1 |
| 20260502014927 | 11 | 136 | 1.6 | 3.2 | 0.00 | 0.08 | 0.08 | 72 | 1012.9 |
| 20260502014424 | 11 | 134 | 1.6 | 3.2 | 0.00 | 0.08 | 0.08 | 71 | 1013.0 |
| 20260502013921 | 11 | 166 | 1.6 | 3.2 | 0.00 | 0.08 | 0.08 | 71 | 1012.7 |
| 20260502013416 | 11 | 225 | 3.2 | 4.8 | 0.00 | 0.08 | 0.08 | 70 | 1012.9 |
| 20260502012913 | 11 | 114 | 1.6 | 4.8 | 0.00 | 0.08 | 0.08 | 70 | 1012.8 |
| 20260502012411 | 11 | 102 | 3.2 | 4.8 | 0.00 | 0.08 | 0.08 | 70 | 1012.5 |
| 20260502011908 | 11 | 141 | 1.6 | 4.8 | 0.00 | 0.08 | 0.08 | 69 | 1012.6 |
| 20260502011404 | 11 | 199 | 1.6 | 3.2 | 0.00 | 0.08 | 0.08 | 68 | 1012.3 |
| 20260502010901 | 11 | 49 | 0.0 | 1.6 | 0.00 | 0.08 | 0.08 | 67 | 1012.5 |
| 20260502010358 | 11 | 222 | 4.8 | 4.8 | 0.00 | 0.08 | 0.08 | 65 | 1012.4 |
| 20260502005854 | 11 | 259 | 0.0 | 3.2 | 0.00 | 0.08 | 0.08 | 65 | 1012.3 |
| 20260502005352 | 12 | 213 | 1.6 | 3.2 | 0.00 | 0.08 | 0.08 | 64 | 1012.3 |
| 20260502004850 | 12 | 226 | 4.8 | 6.4 | 0.00 | 0.08 | 0.08 | 63 | 1012.2 |
| 20260502004345 | 12 | 231 | 3.2 | 6.4 | 0.00 | 0.08 | 0.08 | 65 | 1012.2 |
| 20260502003843 | 12 | 189 | 0.0 | 1.6 | 0.00 | 0.08 | 0.08 | 63 | 1012.1 |
| 20260502003340 | 12 | 149 | 0.0 | 3.2 | 0.00 | 0.08 | 0.08 | 64 | 1011.9 |
| 20260502002837 | 12 | 136 | 1.6 | 3.2 | 0.00 | 0.08 | 0.08 | 63 | 1011.8 |
| 20260502002334 | 12 | 161 | 1.6 | 3.2 | 0.00 | 0.08 | 0.08 | 64 | 1011.7 |
| 20260502001831 | 12 | 146 | 1.6 | 3.2 | 0.00 | 0.08 | 0.08 | 62 | 1011.7 |
| 20260502001329 | 12 | 146 | 1.6 | 3.2 | 0.00 | 0.08 | 0.08 | 60 | 1011.8 |
| 20260502000826 | 12 | 134 | 0.0 | 1.6 | 0.00 | 0.08 | 0.08 | 59 | 1011.6 |
| 20260502000325 | 13 | 132 | 0.0 | 3.2 | 0.00 | 0.08 | 0.08 | 59 | 1011.6 |
| 20260501235820 | 13 | 156 | 1.6 | 1.6 | 0.00 | 0.08 | 0.08 | 60 | 1011.6 |
| 20260501235316 | 13 | 162 | 0.0 | 1.6 | 0.00 | 0.08 | 0.08 | 60 | 1011.5 |
| 20260501234811 | 13 | 142 | 0.0 | 1.6 | 0.00 | 0.08 | 0.08 | 59 | 1011.5 |
| 20260501234309 | 13 | 134 | 0.0 | 3.2 | 0.00 | 0.08 | 0.08 | 59 | 1011.2 |
| 20260501233807 | 13 | 163 | 0.0 | 3.2 | 0.00 | 0.08 | 0.08 | 58 | 1011.2 |
| 20260501233304 | 13 | 175 | 0.0 | 1.6 | 0.00 | 0.08 | 0.08 | 57 | 1011.2 |
| 20260501232759 | 14 | 162 | 0.0 | 1.6 | 0.00 | 0.08 | 0.08 | 51 | 1011.3 |
| 20260501232257 | 14 | 159 | 0.0 | 1.6 | 0.00 | 0.08 | 0.08 | 50 | 1011.2 |
| 20260501231754 | 14 | 137 | 0.0 | 1.6 | 0.00 | 0.08 | 0.08 | 49 | 1011.2 |
| 20260501231253 | 15 | 137 | 0.0 | 1.6 | 0.00 | 0.08 | 0.08 | 47 | 1011.0 |
| 20260501230750 | 15 | 162 | 0.0 | 1.6 | 0.00 | 0.08 | 0.08 | 47 | 1010.7 |
| 20260501230249 | 15 | 329 | 0.0 | 1.6 | 0.00 | 0.08 | 0.08 | 47 | 1011.0 |
| 20260501225746 | 15 | 330 | 0.0 | 1.6 | 0.00 | 0.08 | 0.08 | 46 | 1010.8 |
| 20260501225243 | 15 | 209 | 1.6 | 3.2 | 0.00 | 0.08 | 0.08 | 47 | 1010.8 |
| 20260501224739 | 15 | 311 | 0.0 | 0.0 | 0.00 | 0.08 | 0.08 | 45 | 1010.8 |
| 20260501224237 | 16 | 242 | 0.0 | 1.6 | 0.00 | 0.08 | 0.08 | 42 | 1010.8 |
| 20260501223733 | 16 | 295 | 0.0 | 8.0 | 0.00 | 0.08 | 0.08 | 40 | 1010.7 |
| 20260501223230 | 16 | 288 | 0.0 | 6.4 | 0.00 | 0.08 | 0.08 | 42 | 1010.7 |
| 20260501222725 | 16 | 312 | 3.2 | 6.4 | 0.00 | 0.08 | 0.08 | 40 | 1010.5 |
| 20260501222223 | 16 | 229 | 0.0 | 3.2 | 0.00 | 0.08 | 0.08 | 41 | 1010.6 |
| 20260501221720 | 16 | 0 | 0.0 | 3.2 | 0.00 | 0.08 | 0.08 | 42 | 1010.8 |
| 20260501221217 | 16 | 11 | 3.2 | 8.0 | 0.00 | 0.08 | 0.08 | 40 | 1010.5 |
| 20260501220714 | 16 | 318 | 0.0 | 8.0 | 0.00 | 0.08 | 0.08 | 40 | 1010.6 |
| 20260501220212 | 16 | 265 | 3.2 | 9.7 | 0.00 | 0.08 | 0.08 | 38 | 1010.8 |
| 20260501215709 | 16 | 345 | 3.2 | 6.4 | 0.00 | 0.08 | 0.08 | 38 | 1010.8 |
| 20260501215204 | 16 | 251 | 4.8 | 9.7 | 0.00 | 0.08 | 0.08 | 38 | 1010.6 |
| 20260501214659 | 16 | 341 | 1.6 | 8.0 | 0.00 | 0.08 | 0.08 | 40 | 1010.7 |
| 20260501214155 | 16 | 340 | 6.4 | 11.3 | 0.00 | 0.08 | 0.08 | 39 | 1010.7 |
| 20260501213652 | 16 | 70 | 1.6 | 11.3 | 0.00 | 0.08 | 0.08 | 39 | 1010.8 |
| 20260501213147 | 16 | 91 | 8.0 | 11.3 | 0.00 | 0.08 | 0.08 | 38 | 1010.6 |
| 20260501212644 | 16 | 312 | 8.0 | 14.5 | 0.00 | 0.08 | 0.08 | 38 | 1010.8 |
| 20260501212141 | 16 | 324 | 1.6 | 11.3 | 0.00 | 0.08 | 0.08 | 39 | 1010.7 |
| 20260501211638 | 17 | 337 | 3.2 | 11.3 | 0.00 | 0.08 | 0.08 | 38 | 1010.7 |
| 20260501211135 | 17 | 349 | 4.8 | 11.3 | 0.00 | 0.08 | 0.08 | 38 | 1010.8 |
| 20260501210632 | 17 | 20 | 9.7 | 17.7 | 0.00 | 0.08 | 0.08 | 35 | 1010.8 |
| 20260501210129 | 17 | 236 | 4.8 | 11.3 | 0.00 | 0.08 | 0.08 | 37 | 1010.5 |
| 20260501205625 | 16 | 276 | 8.0 | 12.9 | 0.00 | 0.08 | 0.08 | 41 | 1010.7 |
| 20260501205123 | 16 | 294 | 4.8 | 16.1 | 0.00 | 0.08 | 0.08 | 39 | 1010.6 |
| 20260501204619 | 17 | 24 | 3.2 | 8.0 | 0.00 | 0.08 | 0.08 | 37 | 1010.5 |
| 20260501204115 | 17 | 322 | 4.8 | 4.8 | 0.00 | 0.08 | 0.08 | 34 | 1010.6 |
| 20260501203612 | 17 | 166 | 3.2 | 9.7 | 0.00 | 0.08 | 0.08 | 38 | 1010.4 |
| 20260501203109 | 17 | 343 | 4.8 | 11.3 | 0.00 | 0.08 | 0.08 | 37 | 1010.7 |
| 20260501202600 | 17 | 69 | 3.2 | 6.4 | 0.00 | 0.08 | 0.08 | 40 | 1010.6 |
| 20260501202056 | 17 | 346 | 3.2 | 11.3 | 0.00 | 0.08 | 0.08 | 41 | 1010.7 |
| 20260501201553 | 16 | 348 | 4.8 | 14.5 | 0.00 | 0.08 | 0.08 | 38 | 1010.7 |
| 20260501201050 | 17 | 14 | 3.2 | 9.7 | 0.00 | 0.08 | 0.08 | 39 | 1010.5 |
| 20260501200547 | 17 | 359 | 4.8 | 9.7 | 0.00 | 0.08 | 0.08 | 36 | 1010.7 |
| 20260501200044 | 16 | 276 | 4.8 | 6.4 | 0.00 | 0.08 | 0.08 | 39 | 1010.7 |
| 20260501195542 | 16 | 310 | 4.8 | 14.5 | 0.00 | 0.08 | 0.08 | 41 | 1010.9 |
| 20260501195037 | 16 | 327 | 8.0 | 11.3 | 0.00 | 0.08 | 0.08 | 41 | 1011.0 |
| 20260501194533 | 16 | 309 | 4.8 | 8.0 | 0.00 | 0.08 | 0.08 | 41 | 1010.9 |
| 20260501194029 | 16 | 172 | 3.2 | 11.3 | 0.00 | 0.08 | 0.08 | 43 | 1010.9 |
| 20260501193526 | 17 | 32 | 3.2 | 20.9 | 0.00 | 0.08 | 0.08 | 37 | 1010.8 |
| 20260501193025 | 17 | 297 | 4.8 | 9.7 | 0.00 | 0.08 | 0.08 | 39 | 1010.8 |
| 20260501192521 | 16 | 204 | 3.2 | 11.3 | 0.00 | 0.08 | 0.08 | 39 | 1011.0 |
| 20260501192019 | 16 | 280 | 3.2 | 8.0 | 0.00 | 0.08 | 0.08 | 38 | 1011.0 |
| 20260501191516 | 15 | 19 | 0.0 | 8.0 | 0.00 | 0.08 | 0.08 | 39 | 1011.0 |
| 20260501191014 | 16 | 160 | 6.4 | 9.7 | 0.00 | 0.08 | 0.08 | 39 | 1011.3 |
| 20260501190508 | 16 | 29 | 6.4 | 12.9 | 0.00 | 0.08 | 0.08 | 40 | 1011.2 |
| 20260501190004 | 15 | 313 | 3.2 | 11.3 | 0.00 | 0.08 | 0.08 | 41 | 1011.5 |
| 20260501185500 | 16 | 358 | 0.0 | 11.3 | 0.00 | 0.08 | 0.08 | 40 | 1011.5 |
| 20260501184957 | 16 | 165 | 3.2 | 8.0 | 0.00 | 0.08 | 0.08 | 42 | 1011.6 |
| 20260501184453 | 16 | 22 | 6.4 | 11.3 | 0.00 | 0.08 | 0.08 | 40 | 1011.9 |
| 20260501183948 | 15 | 48 | 3.2 | 6.4 | 0.00 | 0.08 | 0.08 | 44 | 1011.7 |
| 20260501183445 | 15 | 58 | 3.2 | 14.5 | 0.00 | 0.08 | 0.08 | 45 | 1011.7 |
| 20260501182941 | 15 | 49 | 0.0 | 4.8 | 0.00 | 0.08 | 0.08 | 43 | 1011.7 |
| 20260501182438 | 15 | 21 | 3.2 | 9.7 | 0.00 | 0.08 | 0.08 | 43 | 1011.9 |
| 20260501181935 | 15 | 31 | 12.9 | 14.5 | 0.00 | 0.08 | 0.08 | 40 | 1011.6 |
| 20260501181427 | 15 | 15 | 4.8 | 16.1 | 0.05 | 0.08 | 0.08 | 41 | 1011.8 |
| 20260501180924 | 15 | 84 | 4.8 | 11.3 | 0.13 | 0.05 | 0.05 | 39 | 1011.8 |
| 20260501180421 | 14 | 82 | 3.2 | 11.3 | 0.23 | 0.05 | 0.05 | 44 | 1012.0 |
| 20260501175917 | 13 | 19 | 3.2 | 17.7 | 0.13 | 0.05 | 0.05 | 43 | 1012.0 |
| 20260501175415 | 14 | 18 | 3.2 | 16.1 | 0.00 | 0.03 | 0.03 | 42 | 1011.9 |
| 20260501174911 | 15 | 49 | 4.8 | 14.5 | 0.00 | 0.03 | 0.03 | 39 | 1012.2 |
| 20260501174409 | 15 | 18 | 1.6 | 14.5 | 0.05 | 0.03 | 0.03 | 42 | 1012.0 |
| 20260501173906 | 15 | 25 | 8.0 | 19.3 | 0.05 | 0.00 | 0.00 | 40 | 1012.0 |
| 20260501173404 | 15 | 34 | 9.7 | 17.7 | 0.05 | 0.00 | 0.00 | 43 | 1011.9 |
| 20260501172859 | 15 | 102 | 8.0 | 17.7 | 0.00 | 0.00 | 0.00 | 39 | 1012.1 |
| 20260501172355 | 15 | 93 | 4.8 | 11.3 | 0.00 | 0.00 | 0.00 | 48 | 1011.7 |
| 20260501171850 | 16 | 27 | 12.9 | 22.5 | 0.00 | 0.00 | 0.00 | 42 | 1012.1 |
| 20260501171347 | 15 | 7 | 6.4 | 14.5 | 0.00 | 0.00 | 0.00 | 40 | 1012.1 |
| 20260501170844 | 15 | 167 | 8.0 | 14.5 | 0.00 | 0.00 | 0.00 | 42 | 1012.0 |
| 20260501170341 | 15 | 81 | 8.0 | 24.1 | 0.00 | 0.00 | 0.00 | 39 | 1012.2 |
| 20260501165838 | 15 | 13 | 3.2 | 12.9 | 0.00 | 0.00 | 0.00 | 38 | 1012.0 |
| 20260501165336 | 14 | 68 | 4.8 | 20.9 | 0.00 | 0.00 | 0.00 | 43 | 1012.1 |
| 20260501164834 | 14 | 174 | 8.0 | 14.5 | 0.00 | 0.00 | 0.00 | 41 | 1012.0 |
| 20260501164331 | 15 | 222 | 3.2 | 9.7 | 0.00 | 0.00 | 0.00 | 44 | 1012.0 |
| 20260501163827 | 15 | 201 | 1.6 | 8.0 | 0.00 | 0.00 | 0.00 | 45 | 1012.2 |
| 20260501163324 | 15 | 188 | 8.0 | 12.9 | 0.00 | 0.00 | 0.00 | 42 | 1012.1 |
| 20260501162821 | 15 | 293 | 11.3 | 17.7 | 0.00 | 0.00 | 0.00 | 41 | 1012.2 |
| 20260501162317 | 14 | 196 | 1.6 | 17.7 | 0.00 | 0.00 | 0.00 | 39 | 1012.4 |
| 20260501161814 | 14 | 184 | 4.8 | 19.3 | 0.00 | 0.00 | 0.00 | 43 | 1012.3 |
| 20260501161311 | 15 | 285 | 3.2 | 11.3 | 0.00 | 0.00 | 0.00 | 44 | 1012.4 |
| 20260501160808 | 15 | 98 | 8.0 | 16.1 | 0.00 | 0.00 | 0.00 | 40 | 1012.5 |
| 20260501160304 | 14 | 109 | 4.8 | 20.9 | 0.00 | 0.00 | 0.00 | 47 | 1012.3 |
| 20260501155802 | 13 | 134 | 4.8 | 14.5 | 0.00 | 0.00 | 0.00 | 44 | 1012.4 |
| 20260501155258 | 14 | 16 | 4.8 | 27.4 | 0.00 | 0.00 | 0.00 | 46 | 1012.5 |
| 20260501154755 | 13 | 348 | 6.4 | 11.3 | 0.00 | 0.00 | 0.00 | 45 | 1012.5 |
| 20260501154252 | 14 | 303 | 8.0 | 14.5 | 0.00 | 0.00 | 0.00 | 49 | 1012.5 |
| 20260501153750 | 13 | 270 | 8.0 | 19.3 | 0.00 | 0.00 | 0.00 | 50 | 1012.6 |
| 20260501153247 | 13 | 118 | 6.4 | 17.7 | 0.00 | 0.00 | 0.00 | 46 | 1012.7 |
| 20260501152743 | 13 | 26 | 9.7 | 12.9 | 0.00 | 0.00 | 0.00 | 49 | 1012.7 |
| 20260501152240 | 12 | 319 | 9.7 | 14.5 | 0.00 | 0.00 | 0.00 | 48 | 1012.8 |
| 20260501151738 | 13 | 274 | 6.4 | 14.5 | 0.00 | 0.00 | 0.00 | 50 | 1012.8 |
| 20260501151233 | 13 | 274 | 4.8 | 11.3 | 0.00 | 0.00 | 0.00 | 49 | 1012.7 |
| 20260501150730 | 13 | 118 | 4.8 | 14.5 | 0.00 | 0.00 | 0.00 | 47 | 1012.9 |
| 20260501150226 | 12 | 149 | 4.8 | 9.7 | 0.00 | 0.00 | 0.00 | 54 | 1012.9 |
| 20260501145723 | 13 | 30 | 8.0 | 12.9 | 0.00 | 0.00 | 0.00 | 49 | 1012.9 |
| 20260501145221 | 12 | 295 | 14.5 | 14.5 | 0.00 | 0.00 | 0.00 | 52 | 1013.0 |
| 20260501144716 | 13 | 100 | 1.6 | 9.7 | 0.00 | 0.00 | 0.00 | 53 | 1012.8 |
| 20260501144213 | 12 | 100 | 8.0 | 17.7 | 0.00 | 0.00 | 0.00 | 55 | 1012.8 |
| 20260501143709 | 12 | 79 | 11.3 | 14.5 | 0.00 | 0.00 | 0.00 | 50 | 1012.8 |
| 20260501143207 | 12 | 338 | 3.2 | 6.4 | 0.00 | 0.00 | 0.00 | 52 | 1012.9 |
| 20260501142703 | 12 | 103 | 3.2 | 11.3 | 0.00 | 0.00 | 0.00 | 50 | 1013.0 |
| 20260501142159 | 12 | 175 | 6.4 | 12.9 | 0.00 | 0.00 | 0.00 | 53 | 1012.7 |
| 20260501141654 | 12 | 13 | 6.4 | 12.9 | 0.00 | 0.00 | 0.00 | 50 | 1012.9 |